Find Starlink 35131

NORAD ID: 66075 Int'l Des: 2025-235 Owner: SPXS Country: US Constellation: starlink operational
LEOCIRCULAR

当前视图

正在加载3D地球...

About Starlink 35131

Starlink 35131 (NORAD 66075) is a starlink constellation satellite (v2 mini) launched Oct 19, 2025 by SPXS of US. It operates in LEO, CIRCULAR orbit with a mass of 575.00 kg.

即将过境

Passes for default location (London). Set your location on the main map for personalized predictions.

高度历史

Loading altitude history...

两行轨道根数

1 66075U 25235T 26263.14354583 .00003378 00000-0 11103-3 0 9993
2 66075 53.1559 59.1801 0001183 263.0806 97.0062 15.34409572 52737
Epoch: Sep 20, 2026 • Age: 22 hours

当前状态

高度 463.1 km
远地点 / 近地点 N/A
速度 7.64 km/s
星下点 13.56°N, 44.25°E
发射日期 Oct 19, 2025
运行时间 0.9 years
类型 internet

技术详情

分类 Payload
质量 575.00 kg
干质量 530.00 kg
长度 0.30 m
跨度 29.00 m
形状 ? Box + pan
制造商 SPXS
平台类型 Starlink V2MO
阶段状态 In Orbit
所有者/国家 SPXS/US

Most Searched